FBZ5435 SARI-SABE

Flight info

Callsign FBZ5435
Flight time 1h 31m
Altitude 38000
Route NAIDE2C NAIDE UT667 GEMSU UN785 GUA UZ129 PAGON PAGON8Q
Aircraft B738/M-SDE2E3FGHIRWXY/LB1

Departure

Time 2026-04-20 15:09
Airport Cataratas Del Iguazú International Airport (SARI)

Arrival

Time 2026-04-20 16:41
Airport Aeroparque Jorge Newbery (SABE)
Time Latitude Longitude Altitude Speed Heading
2026-04-20 14:31 -25.73240 -54.47642 933 ft 0 kts 26°
2026-04-20 15:01 -25.73243 -54.47643 926 ft 3 kts 26°
2026-04-20 15:01 -25.73268 -54.47653 927 ft 4 kts
2026-04-20 15:01 -25.73290 -54.47646 927 ft 4 kts 308°
2026-04-20 15:02 -25.73295 -54.47639 929 ft 0 kts 295°
2026-04-20 15:05 -25.73288 -54.47653 926 ft 7 kts 296°
2026-04-20 15:05 -25.73257 -54.47726 926 ft 12 kts 295°
2026-04-20 15:05 -25.73222 -54.47812 927 ft 12 kts 286°
2026-04-20 15:06 -25.73224 -54.47906 926 ft 13 kts 264°
2026-04-20 15:06 -25.73233 -54.48015 926 ft 15 kts 265°
2026-04-20 15:06 -25.73242 -54.48126 929 ft 14 kts 264°
2026-04-20 15:06 -25.73251 -54.48233 929 ft 14 kts 264°
2026-04-20 15:07 -25.73260 -54.48334 928 ft 13 kts 264°
2026-04-20 15:07 -25.73263 -54.48442 926 ft 16 kts 277°
2026-04-20 15:07 -25.73215 -54.48572 926 ft 20 kts 296°
2026-04-20 15:07 -25.73158 -54.48708 926 ft 19 kts 301°
2026-04-20 15:08 -25.73097 -54.48803 927 ft 11 kts 242°
2026-04-20 15:08 -25.73126 -54.48784 925 ft 0 kts 115°
2026-04-20 15:09 -25.73151 -54.48725 929 ft 34 kts 115°
2026-04-20 15:09 -25.73364 -54.48216 929 ft 109 kts 115°
2026-04-20 15:09 -25.73766 -54.47236 976 ft 165 kts 112°
2026-04-20 15:09 -25.74268 -54.46043 1672 ft 175 kts 112°
2026-04-20 15:10 -25.74807 -54.44753 2394 ft 191 kts 110°
2026-04-20 15:10 -25.75369 -54.43392 3213 ft 203 kts 107°
2026-04-20 15:10 -25.75981 -54.41894 3770 ft 217 kts 108°
2026-04-20 15:10 -25.76646 -54.40386 4689 ft 220 kts 113°
2026-04-20 15:11 -25.77655 -54.39048 5230 ft 236 kts 143°
2026-04-20 15:11 -25.79204 -54.38371 5894 ft 244 kts 173°
2026-04-20 15:11 -25.80884 -54.38222 6674 ft 241 kts 177°
2026-04-20 15:11 -25.82616 -54.38140 6974 ft 263 kts 179°
2026-04-20 15:12 -25.84541 -54.38075 7249 ft 288 kts 179°
2026-04-20 15:12 -25.86548 -54.37987 7900 ft 295 kts 178°
2026-04-20 15:12 -25.88613 -54.37878 8750 ft 300 kts 177°
2026-04-20 15:12 -25.90697 -54.37748 9603 ft 299 kts 177°
2026-04-20 15:13 -25.92777 -54.37606 10398 ft 301 kts 176°
2026-04-20 15:13 -25.94943 -54.37452 10756 ft 325 kts 176°
2026-04-20 15:13 -25.97277 -54.37282 10968 ft 344 kts 176°
2026-04-20 15:13 -25.99695 -54.37103 11543 ft 353 kts 176°
2026-04-20 15:14 -26.02154 -54.36912 12310 ft 354 kts 176°
2026-04-20 15:14 -26.04628 -54.36718 13045 ft 359 kts 177°
2026-04-20 15:14 -26.07139 -54.36522 13696 ft 365 kts 177°
2026-04-20 15:14 -26.09681 -54.36326 14439 ft 367 kts 177°
2026-04-20 15:15 -26.12239 -54.36123 15147 ft 371 kts 177°
2026-04-20 15:15 -26.14831 -54.35920 15844 ft 376 kts 177°
2026-04-20 15:15 -26.17454 -54.35715 16509 ft 381 kts 178°
2026-04-20 15:15 -26.20111 -54.35507 17180 ft 385 kts 178°
2026-04-20 15:16 -26.22792 -54.35298 17835 ft 388 kts 178°
2026-04-20 15:16 -26.25500 -54.35299 18414 ft 390 kts 192°
2026-04-20 15:16 -26.28103 -54.36124 19019 ft 390 kts 201°
2026-04-20 15:16 -26.30680 -54.37106 19626 ft 393 kts 202°
2026-04-20 15:17 -26.33279 -54.38108 20181 ft 397 kts 202°
2026-04-20 15:17 -26.35908 -54.39115 20721 ft 402 kts 202°
2026-04-20 15:17 -26.37701 -54.39796 21110 ft 405 kts 202°
2026-04-20 15:17 -26.40345 -54.40791 21686 ft 408 kts 202°
2026-04-20 15:18 -26.43053 -54.41803 22228 ft 412 kts 201°
2026-04-20 15:18 -26.45783 -54.42820 22742 ft 416 kts 201°
2026-04-20 15:18 -26.48546 -54.43847 23246 ft 420 kts 201°
2026-04-20 15:18 -26.51331 -54.44883 23719 ft 424 kts 201°
2026-04-20 15:19 -26.54140 -54.45927 24171 ft 426 kts 202°
2026-04-20 15:19 -26.56960 -54.46977 24676 ft 427 kts 202°
2026-04-20 15:19 -26.59776 -54.48026 25165 ft 428 kts 202°
2026-04-20 15:19 -26.62605 -54.49080 25643 ft 429 kts 202°
2026-04-20 15:20 -26.65439 -54.50137 26109 ft 431 kts 202°
2026-04-20 15:20 -26.66575 -54.50561 26286 ft 431 kts 202°
2026-04-20 15:21 -26.69102 -54.51505 26677 ft 433 kts 202°
2026-04-20 15:21 -26.71861 -54.52830 27092 ft 429 kts 214°
2026-04-20 15:21 -26.74376 -54.54627 27547 ft 429 kts 217°
2026-04-20 15:22 -26.76858 -54.56481 27969 ft 430 kts 217°
2026-04-20 15:22 -26.79347 -54.58353 28351 ft 432 kts 217°
2026-04-20 15:22 -26.81848 -54.60224 28742 ft 434 kts 217°
2026-04-20 15:22 -26.84368 -54.62093 29116 ft 436 kts 217°
2026-04-20 15:23 -26.86908 -54.63964 29512 ft 438 kts 217°
2026-04-20 15:23 -26.89460 -54.65835 29909 ft 439 kts 217°
2026-04-20 15:23 -26.92021 -54.67708 30264 ft 440 kts 217°
2026-04-20 15:23 -26.94594 -54.69588 30609 ft 441 kts 217°
2026-04-20 15:24 -26.97158 -54.71461 30975 ft 440 kts 217°
2026-04-20 15:24 -26.99723 -54.73337 31350 ft 440 kts 217°
2026-04-20 15:24 -27.02280 -54.75208 31805 ft 437 kts 217°
2026-04-20 15:24 -27.04809 -54.77059 32339 ft 432 kts 217°
2026-04-20 15:25 -27.07306 -54.78889 32907 ft 426 kts 217°
2026-04-20 15:25 -27.09775 -54.80699 33415 ft 422 kts 217°
2026-04-20 15:25 -27.12223 -54.82496 33844 ft 420 kts 218°
2026-04-20 15:25 -27.14662 -54.84288 34204 ft 418 kts 218°
2026-04-20 15:26 -27.17092 -54.86075 34542 ft 417 kts 218°
2026-04-20 15:26 -27.19510 -54.87853 34884 ft 415 kts 218°
2026-04-20 15:26 -27.21926 -54.89631 35168 ft 415 kts 218°
2026-04-20 15:26 -27.24335 -54.91405 35430 ft 415 kts 218°
2026-04-20 15:27 -27.26747 -54.93182 35751 ft 413 kts 218°
2026-04-20 15:27 -27.29147 -54.94949 36083 ft 412 kts 218°
2026-04-20 15:27 -27.31542 -54.96714 36336 ft 412 kts 219°
2026-04-20 15:27 -27.33782 -54.98672 36584 ft 404 kts 230°
2026-04-20 15:28 -27.35491 -55.01128 36860 ft 396 kts 243°
2026-04-20 15:28 -27.36781 -55.03852 37155 ft 393 kts 246°
2026-04-20 15:28 -27.38002 -55.06605 37356 ft 394 kts 246°
2026-04-20 15:28 -27.39198 -55.09342 37547 ft 395 kts 246°
2026-04-20 15:29 -27.40414 -55.12117 37765 ft 395 kts 246°
2026-04-20 15:29 -27.41639 -55.14884 38018 ft 395 kts 246°
2026-04-20 15:29 -27.42876 -55.17660 37987 ft 399 kts 246°
2026-04-20 15:30 -27.45398 -55.23288 38007 ft 406 kts 246°
2026-04-20 15:30 -27.47835 -55.28710 38011 ft 413 kts 246°
2026-04-20 15:31 -27.50439 -55.34509 38006 ft 417 kts 246°
2026-04-20 15:31 -27.53064 -55.40364 38003 ft 420 kts 246°
2026-04-20 15:32 -27.55700 -55.46255 37978 ft 421 kts 246°
2026-04-20 15:32 -27.58333 -55.52148 37988 ft 421 kts 246°
2026-04-20 15:33 -27.61166 -55.57936 37974 ft 426 kts 235°
2026-04-20 15:33 -27.63241 -55.60345 37983 ft 433 kts 223°
2026-04-20 15:33 -27.65711 -55.62321 38001 ft 436 kts 219°
2026-04-20 15:34 -27.70815 -55.66069 37988 ft 438 kts 218°
2026-04-20 15:34 -27.75929 -55.69806 37977 ft 438 kts 219°
2026-04-20 15:35 -27.81010 -55.73583 37985 ft 437 kts 219°
2026-04-20 15:35 -27.86040 -55.77361 37987 ft 437 kts 219°
2026-04-20 15:36 -27.91100 -55.81173 37982 ft 437 kts 219°
2026-04-20 15:36 -27.96156 -55.84987 37977 ft 437 kts 219°
2026-04-20 15:37 -28.01212 -55.88804 37984 ft 437 kts 220°
2026-04-20 15:37 -28.06272 -55.92628 37985 ft 437 kts 220°
2026-04-20 15:38 -28.11330 -55.96455 37985 ft 437 kts 220°
2026-04-20 15:38 -28.16389 -56.00287 37987 ft 438 kts 220°
2026-04-20 15:39 -28.21456 -56.04130 37991 ft 438 kts 220°
2026-04-20 15:39 -28.26523 -56.07977 37991 ft 438 kts 220°
2026-04-20 15:40 -28.31592 -56.11829 37999 ft 439 kts 220°
2026-04-20 15:40 -28.36664 -56.15689 37992 ft 439 kts 220°
2026-04-20 15:41 -28.41741 -56.19558 37995 ft 439 kts 220°
2026-04-20 15:41 -28.46818 -56.23430 38001 ft 440 kts 220°
2026-04-20 15:42 -28.51904 -56.27314 38001 ft 441 kts 220°
2026-04-20 15:42 -28.57003 -56.31213 38007 ft 442 kts 220°
2026-04-20 15:43 -28.62120 -56.35131 38013 ft 444 kts 220°
2026-04-20 15:43 -28.67249 -56.39062 38014 ft 446 kts 220°
2026-04-20 15:44 -28.72402 -56.43016 38018 ft 447 kts 220°
2026-04-20 15:44 -28.77539 -56.46963 38022 ft 449 kts 220°
2026-04-20 15:45 -28.82766 -56.50984 38024 ft 451 kts 220°
2026-04-20 15:45 -28.87942 -56.54970 38025 ft 453 kts 220°
2026-04-20 15:46 -28.93174 -56.59006 38030 ft 455 kts 220°
2026-04-20 15:46 -28.98425 -56.63063 38029 ft 457 kts 220°
2026-04-20 15:47 -29.03698 -56.67142 38031 ft 459 kts 220°
2026-04-20 15:47 -29.08993 -56.71244 38033 ft 460 kts 220°
2026-04-20 15:48 -29.14306 -56.75365 38020 ft 462 kts 220°
2026-04-20 15:48 -29.19642 -56.79508 38035 ft 464 kts 220°
2026-04-20 15:49 -29.24995 -56.83671 38030 ft 466 kts 221°
2026-04-20 15:49 -29.30367 -56.87853 38026 ft 468 kts 221°
2026-04-20 15:50 -29.35756 -56.92054 38029 ft 469 kts 221°
2026-04-20 15:50 -29.41165 -56.96276 38027 ft 471 kts 221°
2026-04-20 15:51 -29.46585 -57.00513 38022 ft 472 kts 221°
2026-04-20 15:51 -29.52021 -57.04767 38013 ft 473 kts 222°
2026-04-20 15:52 -29.57424 -57.09001 38000 ft 474 kts 222°
2026-04-20 15:52 -29.62866 -57.13272 38001 ft 474 kts 222°
2026-04-20 15:53 -29.71038 -57.19695 37993 ft 474 kts 223°
2026-04-20 15:53 -29.76482 -57.23980 38001 ft 474 kts 223°
2026-04-20 15:54 -29.81911 -57.28260 38003 ft 473 kts 223°
2026-04-20 15:54 -29.87330 -57.32538 38007 ft 472 kts 223°
2026-04-20 15:55 -29.92735 -57.36811 38010 ft 470 kts 223°
2026-04-20 15:55 -29.98126 -57.41078 38016 ft 469 kts 223°
2026-04-20 15:56 -30.03502 -57.45341 38010 ft 468 kts 223°
2026-04-20 15:56 -30.08861 -57.49595 38010 ft 467 kts 223°
2026-04-20 15:57 -30.14211 -57.53847 38006 ft 466 kts 223°
2026-04-20 15:57 -30.19549 -57.58097 38004 ft 465 kts 223°
2026-04-20 15:58 -30.24888 -57.62323 37995 ft 468 kts 220°
2026-04-20 15:58 -30.27817 -57.64073 38002 ft 479 kts 211°
2026-04-20 15:58 -30.30986 -57.65360 37993 ft 490 kts 202°
2026-04-20 15:59 -30.37666 -57.67093 38003 ft 492 kts 200°
2026-04-20 15:59 -30.44361 -57.68794 38007 ft 493 kts 201°
2026-04-20 16:00 -30.51048 -57.70537 38003 ft 493 kts 201°
2026-04-20 16:00 -30.57737 -57.72310 38002 ft 493 kts 201°
2026-04-20 16:01 -30.64383 -57.74082 38003 ft 493 kts 201°
2026-04-20 16:01 -30.71076 -57.75867 38006 ft 494 kts 201°
2026-04-20 16:02 -30.77774 -57.77655 37998 ft 494 kts 200°
2026-04-20 16:02 -30.84482 -57.79445 38007 ft 495 kts 201°
2026-04-20 16:03 -30.91211 -57.81248 38010 ft 497 kts 201°
2026-04-20 16:03 -30.97958 -57.83058 38006 ft 498 kts 201°
2026-04-20 16:04 -31.04715 -57.84871 38009 ft 498 kts 201°
2026-04-20 16:04 -31.10375 -57.86391 38002 ft 498 kts 201°
2026-04-20 16:05 -31.17140 -57.88211 38003 ft 499 kts 201°
2026-04-20 16:05 -31.23851 -57.90019 37995 ft 499 kts 201°
2026-04-20 16:06 -31.30608 -57.91843 37999 ft 499 kts 202°
2026-04-20 16:06 -31.37375 -57.93672 38002 ft 499 kts 202°
2026-04-20 16:07 -31.44136 -57.95502 37998 ft 499 kts 202°
2026-04-20 16:07 -31.50902 -57.97336 37998 ft 499 kts 202°
2026-04-20 16:08 -31.57664 -57.99172 38002 ft 499 kts 202°
2026-04-20 16:08 -31.64426 -58.01010 37996 ft 499 kts 202°
2026-04-20 16:09 -31.71184 -58.02850 38003 ft 498 kts 202°
2026-04-20 16:09 -31.77894 -58.04680 38008 ft 498 kts 202°
2026-04-20 16:10 -31.84648 -58.06525 38001 ft 498 kts 202°
2026-04-20 16:10 -31.91403 -58.08373 38005 ft 498 kts 202°
2026-04-20 16:11 -31.98112 -58.10204 37980 ft 486 kts 202°
2026-04-20 16:11 -32.04612 -58.11976 37986 ft 478 kts 202°
2026-04-20 16:12 -32.11093 -58.13767 37540 ft 478 kts 202°
2026-04-20 16:12 -32.14308 -58.14652 37166 ft 472 kts 202°
2026-04-20 16:12 -32.17495 -58.15527 36759 ft 467 kts 202°
2026-04-20 16:13 -32.20647 -58.16393 36374 ft 462 kts 201°
2026-04-20 16:13 -32.23764 -58.17250 35993 ft 458 kts 201°
2026-04-20 16:13 -32.26853 -58.18102 35600 ft 454 kts 201°
2026-04-20 16:13 -32.29923 -58.18950 35198 ft 451 kts 201°
2026-04-20 16:14 -32.32966 -58.19792 34800 ft 448 kts 201°
2026-04-20 16:14 -32.35994 -58.20630 34390 ft 446 kts 201°
2026-04-20 16:14 -32.39006 -58.21465 33990 ft 444 kts 201°
2026-04-20 16:14 -32.41999 -58.22294 33544 ft 441 kts 201°
2026-04-20 16:15 -32.44984 -58.23121 33134 ft 438 kts 201°
2026-04-20 16:15 -32.47899 -58.23928 32740 ft 435 kts 201°
2026-04-20 16:15 -32.50834 -58.24742 32352 ft 432 kts 201°
2026-04-20 16:15 -32.53754 -58.25552 31970 ft 429 kts 201°
2026-04-20 16:16 -32.56640 -58.26353 31590 ft 426 kts 201°
2026-04-20 16:16 -32.59514 -58.27152 31213 ft 423 kts 201°
2026-04-20 16:16 -32.62369 -58.27946 30838 ft 420 kts 201°
2026-04-20 16:16 -32.65201 -58.28734 30480 ft 417 kts 201°
2026-04-20 16:17 -32.68014 -58.29518 30097 ft 414 kts 201°
2026-04-20 16:17 -32.70815 -58.30298 29644 ft 412 kts 201°
2026-04-20 16:17 -32.73598 -58.31074 29221 ft 408 kts 201°
2026-04-20 16:17 -32.76349 -58.31841 28796 ft 405 kts 201°
2026-04-20 16:18 -32.79075 -58.32601 28413 ft 401 kts 201°
2026-04-20 16:18 -32.81774 -58.33355 28015 ft 397 kts 201°
2026-04-20 16:18 -32.84453 -58.34104 27617 ft 394 kts 201°
2026-04-20 16:18 -32.87112 -58.34848 27237 ft 391 kts 200°
2026-04-20 16:19 -32.89748 -58.35586 26844 ft 388 kts 200°
2026-04-20 16:19 -32.92333 -58.36310 26466 ft 385 kts 200°
2026-04-20 16:19 -32.94932 -58.37039 26087 ft 383 kts 200°
2026-04-20 16:19 -32.97519 -58.37765 25708 ft 380 kts 200°
2026-04-20 16:20 -33.00091 -58.38487 25327 ft 378 kts 200°
2026-04-20 16:20 -33.02649 -58.39205 24955 ft 376 kts 200°
2026-04-20 16:20 -33.05058 -58.39882 24607 ft 374 kts 200°
2026-04-20 16:20 -33.07583 -58.40593 24218 ft 373 kts 199°
2026-04-20 16:21 -33.10103 -58.41302 23852 ft 371 kts 199°
2026-04-20 16:21 -33.12615 -58.42009 23452 ft 370 kts 199°
2026-04-20 16:21 -33.15116 -58.42713 23026 ft 368 kts 199°
2026-04-20 16:21 -33.17602 -58.43413 22637 ft 365 kts 199°
2026-04-20 16:22 -33.20066 -58.44107 22266 ft 362 kts 199°
2026-04-20 16:22 -33.22509 -58.44796 21906 ft 360 kts 199°
2026-04-20 16:22 -33.24938 -58.45481 21537 ft 357 kts 199°
2026-04-20 16:22 -33.27314 -58.46152 21181 ft 355 kts 198°
2026-04-20 16:23 -33.29710 -58.46829 20830 ft 353 kts 198°
2026-04-20 16:23 -33.32094 -58.47503 20483 ft 351 kts 198°
2026-04-20 16:23 -33.34469 -58.48175 20132 ft 349 kts 198°
2026-04-20 16:23 -33.36826 -58.48842 19782 ft 348 kts 198°
2026-04-20 16:24 -33.39174 -58.49507 19430 ft 346 kts 198°
2026-04-20 16:24 -33.41512 -58.50170 19082 ft 345 kts 198°
2026-04-20 16:24 -33.43839 -58.50830 18737 ft 343 kts 198°
2026-04-20 16:24 -33.46124 -58.51478 18394 ft 342 kts 198°
2026-04-20 16:25 -33.48355 -58.52111 18010 ft 342 kts 197°
2026-04-20 16:25 -33.50665 -58.52767 17635 ft 340 kts 197°
2026-04-20 16:25 -33.52959 -58.53418 17279 ft 338 kts 197°
2026-04-20 16:25 -33.55246 -58.54068 16928 ft 338 kts 197°
2026-04-20 16:26 -33.57580 -58.54736 16598 ft 358 kts 197°
2026-04-20 16:26 -33.60072 -58.55454 16239 ft 384 kts 197°
2026-04-20 16:26 -33.62677 -58.56199 15819 ft 385 kts 197°
2026-04-20 16:26 -33.65284 -58.56938 15412 ft 384 kts 196°
2026-04-20 16:27 -33.67877 -58.57673 15029 ft 382 kts 196°
2026-04-20 16:27 -33.70458 -58.58406 14629 ft 380 kts 196°
2026-04-20 16:27 -33.73026 -58.59136 14242 ft 378 kts 196°
2026-04-20 16:27 -33.75584 -58.59866 13861 ft 377 kts 196°
2026-04-20 16:28 -33.78128 -58.60592 13436 ft 375 kts 196°
2026-04-20 16:28 -33.80663 -58.61316 13033 ft 373 kts 195°
2026-04-20 16:28 -33.83180 -58.62036 12642 ft 371 kts 195°
2026-04-20 16:28 -33.85682 -58.62752 12266 ft 368 kts 195°
2026-04-20 16:29 -33.88168 -58.63465 11878 ft 366 kts 195°
2026-04-20 16:29 -33.90639 -58.64173 11503 ft 364 kts 195°
2026-04-20 16:29 -33.93098 -58.64879 11135 ft 363 kts 195°
2026-04-20 16:29 -33.95551 -58.65583 10760 ft 361 kts 195°
2026-04-20 16:30 -33.97989 -58.66282 10402 ft 360 kts 195°
2026-04-20 16:30 -34.00417 -58.66980 10107 ft 357 kts 195°
2026-04-20 16:30 -34.02839 -58.67677 10070 ft 358 kts 195°
2026-04-20 16:30 -34.05276 -58.68378 9869 ft 362 kts 195°
2026-04-20 16:31 -34.07666 -58.69066 9560 ft 357 kts 194°
2026-04-20 16:31 -34.10060 -58.69755 9129 ft 353 kts 194°
2026-04-20 16:31 -34.12440 -58.70441 8648 ft 351 kts 194°
2026-04-20 16:31 -34.14809 -58.71124 8024 ft 352 kts 194°
2026-04-20 16:32 -34.17232 -58.71823 7408 ft 358 kts 194°
2026-04-20 16:32 -34.19660 -58.72524 7009 ft 361 kts 194°
2026-04-20 16:32 -34.21300 -58.72998 6763 ft 364 kts 194°
2026-04-20 16:32 -34.23599 -58.73663 6401 ft 367 kts 194°
2026-04-20 16:33 -34.26072 -58.74378 5982 ft 365 kts 194°
2026-04-20 16:33 -34.28532 -58.75088 5598 ft 361 kts 193°
2026-04-20 16:33 -34.30995 -58.75345 5187 ft 351 kts 173°
2026-04-20 16:33 -34.33256 -58.74523 4894 ft 330 kts 153°
2026-04-20 16:34 -34.35091 -58.73019 4662 ft 310 kts 136°
2026-04-20 16:34 -34.36578 -58.71229 4440 ft 294 kts 132°
2026-04-20 16:34 -34.37928 -58.69498 4506 ft 268 kts 131°
2026-04-20 16:34 -34.39159 -58.67924 4376 ft 249 kts 132°
2026-04-20 16:35 -34.40311 -58.66471 4239 ft 230 kts 132°
2026-04-20 16:35 -34.41379 -58.65134 4145 ft 212 kts 132°
2026-04-20 16:35 -34.42379 -58.63884 4018 ft 201 kts 132°
2026-04-20 16:35 -34.43323 -58.62707 3832 ft 192 kts 133°
2026-04-20 16:36 -34.44270 -58.61523 3387 ft 200 kts 133°
2026-04-20 16:36 -34.45230 -58.60324 3136 ft 197 kts 133°
2026-04-20 16:36 -34.46135 -58.59101 2935 ft 194 kts 126°
2026-04-20 16:36 -34.46929 -58.57785 2723 ft 192 kts 123°
2026-04-20 16:37 -34.47674 -58.56462 2502 ft 189 kts 123°
2026-04-20 16:37 -34.48388 -58.55176 2293 ft 179 kts 122°
2026-04-20 16:37 -34.49067 -58.53953 2115 ft 172 kts 121°
2026-04-20 16:37 -34.49717 -58.52780 2019 ft 161 kts 121°
2026-04-20 16:38 -34.50336 -58.51657 1825 ft 158 kts 122°
2026-04-20 16:38 -34.50943 -58.50563 1625 ft 156 kts 121°
2026-04-20 16:38 -34.51543 -58.49484 1464 ft 152 kts 122°
2026-04-20 16:38 -34.52131 -58.48424 1274 ft 151 kts 121°
2026-04-20 16:39 -34.52718 -58.47362 1063 ft 150 kts 122°
2026-04-20 16:39 -34.53281 -58.46347 843 ft 144 kts 124°
2026-04-20 16:39 -34.53839 -58.45341 652 ft 142 kts 124°
2026-04-20 16:39 -34.54368 -58.44390 444 ft 130 kts 126°
2026-04-20 16:40 -34.54882 -58.43429 319 ft 141 kts 124°
2026-04-20 16:40 -34.55447 -58.42425 99 ft 143 kts 126°
2026-04-20 16:40 -34.55967 -58.41498 24 ft 122 kts 126°
2026-04-20 16:40 -34.56327 -58.40865 25 ft 56 kts 124°
2026-04-20 16:41 -34.56399 -58.40668 24 ft 13 kts 56°
2026-04-20 16:41 -34.56354 -58.40664 26 ft 6 kts 327°
2026-04-20 16:41 -34.56334 -58.40700 26 ft 5 kts 277°
2026-04-20 16:41 -34.56312 -58.40734 27 ft 6 kts 339°
2026-04-20 16:42 -34.56275 -58.40752 27 ft 6 kts 330°
2026-04-20 16:42 -34.56240 -58.40787 28 ft 7 kts 317°
2026-04-20 16:42 -34.56199 -58.40833 24 ft 9 kts 316°
2026-04-20 16:42 -34.56163 -58.40903 27 ft 11 kts 298°
2026-04-20 16:43 -34.56118 -58.40989 27 ft 13 kts 306°
2026-04-20 16:43 -34.56062 -58.41081 24 ft 15 kts 306°
2026-04-20 16:43 -34.55997 -58.41184 26 ft 16 kts 307°
2026-04-20 16:43 -34.55930 -58.41292 25 ft 16 kts 304°
2026-04-20 16:44 -34.55896 -58.41371 24 ft 16 kts 297°
2026-04-20 16:44 -34.55856 -58.41466 27 ft 12 kts 297°
2026-04-20 16:44 -34.55818 -58.41555 28 ft 10 kts 297°
2026-04-20 16:44 -34.55773 -58.41588 25 ft 8 kts
2026-04-20 16:45 -34.55727 -58.41553 27 ft 8 kts 36°
2026-04-20 16:45 -34.55688 -58.41538 28 ft 4 kts
2026-04-20 16:45 -34.55669 -58.41535 27 ft 0 kts
2026-04-20 16:46 -34.55664 -58.41534 26 ft 1 kts
2026-04-20 16:46 -34.55663 -58.41534 26 ft 0 kts
2026-04-20 16:46 -34.55662 -58.41534 26 ft 0 kts